Weather History for EGPF - March, 2011

Change the Weather History Date:

Friday, March 4, 2011

  Actual Average Record
Temperature  
Mean Temperature 42 °F -  
Max Temperature 48 °F 48 °F 53 °F (2003)
Min Temperature 37 °F 35 °F 21 °F (2006)
Degree Days  
Heating Degree Days 22    
Moisture  
Dew Point 41 °F    
Average Humidity 92    
Maximum Humidity 100    
Minimum Humidity 82    
Precipitation  
Precipitation 0.00 in - - ()
Sea Level Pressure  
Sea Level Pressure 30.52 in    
Wind  
Wind Speed 4 mph ()    
Max Wind Speed 13 mph    
Max Gust Speed -    
Visibility 1.9 miles    
Events Fog , Rain    
Averages and records for this station are not official NWS values.
T = Trace of Precipitation, MM = Missing Value Source: Averaged Metar Reports

Daily Weather History Graph

Daily Weather History Graph

Search for Another Location

Airport or City:

Trip Planner

Search our weather history database for the weather conditions in past years. The results will help you decide how hot, cold, wet, or windy it might be!

Date:

Astronomy

Mar. 04, 2011 Rise Set
Actual Time 7:02 AM GMT 5:57 PM GMT
Civil Twilight 6:25 AM GMT 6:34 PM GMT
Nautical Twilight 5:42 AM GMT 7:17 PM GMT
Astronomical Twilight 4:59 AM GMT 8:01 PM GMT
Moon 6:26 AM GMT 6:02 PM GMT
Length of Visible Light 12h 09m
Length of Day
10h 55m
Waning Crescent, 0% of the Moon is Illuminated
Mar 4
Waning Crescent
Mar 4
New
Mar 12
First Quarter
Mar 19
Full
Mar 26
Last Quarter

Hourly Weather History & Observations

Time (GMT) Temp. Windchill Dew Point Humidity Pressure Visibility Wind Dir Wind Speed Gust Speed Precip Events Conditions
12:20 AM 42.8 °F - 41.0 °F 93% 30.60 in - NE 2.3 mph - N/A   Haze
12:50 AM 42.8 °F - 41.0 °F 93% 30.60 in - ENE 2.3 mph - N/A   Haze
1:20 AM 42.8 °F - 41.0 °F 93% 30.60 in 2.2 mi NNE 2.3 mph - N/A   Haze
1:50 AM 42.8 °F - 41.0 °F 93% 30.57 in - NNE 2.3 mph - N/A   Haze
2:20 AM 42.8 °F - 41.0 °F 93% 30.57 in - Variable 2.3 mph - N/A   Haze
2:50 AM 42.8 °F 41.1 °F 41.0 °F 93% 30.57 in 1.6 mi WSW 3.5 mph - N/A   Haze
3:20 AM 42.8 °F - 41.0 °F 93% 30.57 in 1.4 mi WSW 2.3 mph - N/A   Haze
3:50 AM 42.8 °F - 41.0 °F 93% 30.54 in 1.4 mi Calm Calm - N/A   Haze
4:20 AM 42.8 °F - 41.0 °F 93% 30.54 in 1.4 mi WSW 2.3 mph - N/A   Haze
4:50 AM 41.0 °F - 41.0 °F 100% 30.54 in 1.4 mi WSW 2.3 mph - N/A   Haze
5:20 AM 42.8 °F - 41.0 °F 93% 30.54 in 1.4 mi West 2.3 mph - N/A   Haze
5:50 AM 42.8 °F - 41.0 °F 93% 30.54 in 0.7 mi WSW 2.3 mph - N/A   Mostly Cloudy
6:20 AM 42.8 °F - 41.0 °F 93% 30.54 in 1.1 mi Calm Calm - N/A   Mostly Cloudy
6:50 AM 42.8 °F - 41.0 °F 93% 30.54 in 1.1 mi Calm Calm - N/A   Light Drizzle
7:20 AM 42.8 °F - 42.8 °F 100% 30.54 in 0.7 mi NW 2.3 mph - N/A Rain Light Rain
7:50 AM 42.8 °F - 42.8 °F 100% 30.54 in 0.9 mi West 2.3 mph - N/A   Light Drizzle
8:20 AM 42.8 °F 41.1 °F 42.8 °F 100% 30.54 in 1.1 mi West 3.5 mph - N/A   Overcast
8:50 AM 44.6 °F 41.4 °F 42.8 °F 93% 30.54 in 1.9 mi WSW 5.8 mph - N/A   Overcast
9:20 AM 44.6 °F 40.7 °F 42.8 °F 93% 30.54 in 2.5 mi WSW 6.9 mph - N/A   Haze
9:50 AM 44.6 °F 40.2 °F 42.8 °F 93% 30.54 in 2.5 mi WSW 8.1 mph - N/A   Overcast
10:20 AM 46.4 °F 41.9 °F 44.6 °F 93% 30.54 in 2.2 mi SW 9.2 mph - N/A   Light Drizzle
10:50 AM 44.6 °F 38.4 °F 42.8 °F 93% 30.54 in 2.5 mi WSW 12.7 mph - N/A   Haze
11:20 AM 46.4 °F 41.1 °F 44.6 °F 93% 30.54 in 2.5 mi WSW 11.5 mph - N/A   Haze
11:50 AM 46.4 °F 41.1 °F 42.8 °F 87% 30.51 in 2.8 mi WSW 11.5 mph - N/A   Haze
12:20 PM 46.4 °F 41.5 °F 44.6 °F 93% 30.51 in 2.5 mi SW 10.4 mph - N/A   Haze
12:50 PM 46.4 °F 41.9 °F 42.8 °F 87% 30.51 in - WSW 9.2 mph - N/A   Haze
1:20 PM 46.4 °F 42.9 °F 42.8 °F 87% 30.51 in 2.8 mi West 6.9 mph - N/A   Haze
1:50 PM 48.2 °F - 44.6 °F 87% 30.51 in - WSW 5.8 mph - N/A   Haze
2:20 PM 48.2 °F - 44.6 °F 87% 30.48 in - SW 8.1 mph - N/A   Haze
2:50 PM 48.2 °F - 42.8 °F 82% 30.48 in 4.3 mi WNW 5.8 mph - N/A   Mostly Cloudy
3:20 PM 48.2 °F - 42.8 °F 82% 30.48 in 4.3 mi West 6.9 mph - N/A   Mostly Cloudy
3:50 PM 48.2 °F - 42.8 °F 82% 30.48 in 3.7 mi WSW 5.8 mph - N/A   Mostly Cloudy
4:20 PM 46.4 °F 42.9 °F 42.8 °F 87% 30.48 in - WSW 6.9 mph - N/A   Haze
4:50 PM 46.4 °F 41.9 °F 42.8 °F 87% 30.48 in 2.5 mi SW 9.2 mph - N/A   Haze
5:20 PM 46.4 °F 42.9 °F 42.8 °F 87% 30.48 in 2.2 mi SW 6.9 mph - N/A   Haze
5:50 PM 44.6 °F 40.2 °F 42.8 °F 93% 30.48 in - SW 8.1 mph - N/A   Haze
6:20 PM 44.6 °F 40.2 °F 42.8 °F 93% 30.48 in 2.5 mi WSW 8.1 mph - N/A   Haze
6:50 PM 44.6 °F 41.4 °F 41.0 °F 87% 30.48 in 3.7 mi SW 5.8 mph - N/A   Mostly Cloudy
7:20 PM 41.0 °F 38.0 °F 39.2 °F 93% 30.48 in 3.1 mi WSW 4.6 mph - N/A   Haze
7:50 PM 41.0 °F 38.0 °F 39.2 °F 93% 30.48 in 2.5 mi West 4.6 mph - N/A   Haze
8:20 PM 37.4 °F 32.8 °F 35.6 °F 93% 30.48 in 2.5 mi WSW 5.8 mph - N/A   Scattered Clouds
8:50 PM 37.4 °F 33.8 °F 37.4 °F 100% 30.51 in 0.6 mi WSW 4.6 mph - N/A Fog Shallow Fog
9:20 PM 37.4 °F 32.1 °F 35.6 °F 93% 30.51 in 1.1 mi SW 6.9 mph - N/A   Mist
9:50 PM 37.4 °F 33.8 °F 35.6 °F 93% 30.51 in 0.4 mi West 4.6 mph - N/A Fog Patches of Fog
10:20 PM 37.4 °F 33.8 °F 35.6 °F 93% 30.51 in 0.1 mi West 4.6 mph - N/A Fog Fog
10:50 PM 37.4 °F 34.9 °F 35.6 °F 93% 30.51 in 0.1 mi West 3.5 mph - N/A Fog Fog
11:20 PM 37.4 °F 33.8 °F 37.4 °F 100% 30.51 in 0.2 mi West 4.6 mph - N/A Fog Fog
11:50 PM 37.4 °F - 37.4 °F 100% 30.51 in 0.2 mi Variable 2.3 mph - N/A Fog Fog